Chester, CT

3:12 PM EDT on October 14, 2019 (GMT -0400)
Chester

Weather History for KSNC - August, 2019

Change the Weather History Date:

Tuesday, August 6, 2019

  Actual Average (WUND) Record (WUND)
Temperature  
Mean Temperature 70 °F -  
Max Temperature 78 °F - - (-1)
Min Temperature 62 °F - - (-1)
Cooling Degree Days 5    
Growing Degree Days 20 (Base 50)    
Moisture  
Dew Point 67 °F    
Average Humidity 90    
Maximum Humidity 100    
Minimum Humidity 69    
Precipitation  
Precipitation 0.00 in - - ()
Sea Level Pressure  
Sea Level Pressure 29.91 in    
Wind  
Wind Speed 1 mph (SSE)    
Max Wind Speed 7 mph    
Max Gust Speed -    
Visibility 8 miles    
Events Fog , Rain    
Averages and records for this station are not official NWS values.
T = Trace of Precipitation, MM = Missing Value Source: NWS Daily Summary

Daily Weather History Graph

Daily Weather History Graph

Search for Another Location

Airport or City:

Astronomy

Aug. 06, 2019 Rise Set
Actual Time 5:49 AM EDT 8:01 PM EDT
Civil Twilight 5:19 AM EDT 8:32 PM EDT
Nautical Twilight 4:41 AM EDT 9:09 PM EDT
Astronomical Twilight 3:59 AM EDT 9:50 PM EDT
Moon 12:15 PM EDT (8/6) 11:40 PM EDT (8/6)
Length of Visible Light 15h 12m
Length of Day
14h 11m
Waxing Crescent, 38% of the Moon is Illuminated
Aug 6
Waxing Crescent
Aug 7
First Quarter
Aug 15
Full
Aug 23
Last Quarter
Aug 30
New

Hourly Weather History & Observations

Time (EDT) Temp. Dew Point Humidity Pressure Visibility Wind Dir Wind Speed Gust Speed Precip Events Conditions
12:15 AM 64.4 °F 62.6 °F 94% 29.98 in 10.0 mi Calm Calm - N/A   Clear
12:35 AM 64.4 °F 62.6 °F 94% 29.97 in 10.0 mi Calm Calm - N/A   Clear
12:55 AM 64.4 °F 62.6 °F 94% 29.97 in 10.0 mi Calm Calm - N/A   Clear
1:15 AM 64.4 °F 62.6 °F 94% 29.97 in 10.0 mi Calm Calm - N/A   Clear
1:35 AM 64.4 °F 62.6 °F 94% 29.96 in 10.0 mi Calm Calm - N/A   Clear
1:55 AM 64.4 °F 62.6 °F 94% 29.96 in 10.0 mi Calm Calm - N/A   Clear
2:15 AM 64.4 °F 62.6 °F 94% 29.95 in 10.0 mi Calm Calm - N/A   Clear
2:35 AM 64.4 °F 62.6 °F 94% 29.94 in 10.0 mi Calm Calm - N/A   Clear
2:55 AM 64.4 °F 62.6 °F 94% 29.94 in 10.0 mi Calm Calm - N/A   Clear
3:15 AM 62.6 °F 62.6 °F 100% 29.94 in 10.0 mi Calm Calm - N/A   Clear
3:35 AM 62.6 °F 62.6 °F 100% 29.94 in 10.0 mi Calm Calm - N/A   Clear
3:55 AM 62.6 °F 62.6 °F 100% 29.94 in 10.0 mi Calm Calm - N/A   Clear
4:15 AM 62.6 °F 62.6 °F 100% 29.93 in 10.0 mi Calm Calm - N/A   Clear
4:35 AM 62.6 °F 62.6 °F 100% 29.94 in 10.0 mi Calm Calm - N/A   Clear
4:55 AM 62.6 °F 62.6 °F 100% 29.94 in 9.0 mi Calm Calm - N/A   Clear
5:15 AM 62.6 °F 62.6 °F 100% 29.94 in 10.0 mi Calm Calm - N/A   Clear
5:35 AM 62.6 °F 62.6 °F 100% 29.95 in 10.0 mi Calm Calm - N/A   Clear
5:55 AM 62.6 °F 62.6 °F 100% 29.94 in 8.0 mi NW 3.5 mph - N/A   Mostly Cloudy
6:35 AM 64.4 °F 64.4 °F 100% 29.95 in 0.2 mi Calm Calm - N/A Fog Fog
6:55 AM 64.4 °F 64.4 °F 100% 29.95 in 0.2 mi Calm Calm - N/A Fog Fog
7:15 AM 66.2 °F 66.2 °F 100% 29.94 in 0.2 mi Calm Calm - N/A Fog Fog
7:35 AM 66.2 °F 66.2 °F 100% 29.95 in 0.2 mi Calm Calm - N/A Fog Fog
7:55 AM 66.2 °F 66.2 °F 100% 29.94 in 0.2 mi Calm Calm - N/A Fog Fog
8:15 AM 68.0 °F 68.0 °F 100% 29.94 in 0.2 mi Calm Calm - N/A Fog Fog
8:35 AM 69.8 °F 68.0 °F 94% 29.93 in 0.5 mi North 3.5 mph - N/A Fog Fog
8:55 AM 73.4 °F 68.0 °F 83% 29.93 in 9.0 mi Calm Calm - N/A   Scattered Clouds
9:15 AM 73.4 °F 68.0 °F 83% 29.92 in 10.0 mi East 3.5 mph - N/A   Clear
9:35 AM 73.4 °F 66.2 °F 78% 29.92 in 10.0 mi ENE 3.5 mph - N/A   Clear
9:55 AM 73.4 °F 68.0 °F 83% 29.92 in 10.0 mi East 3.5 mph - N/A   Clear
10:15 AM 75.2 °F 68.0 °F 78% 29.92 in 10.0 mi SE 5.8 mph - N/A   Clear
10:35 AM 75.2 °F 68.0 °F 78% 29.92 in 10.0 mi East 4.6 mph - N/A   Clear
10:55 AM 75.2 °F 68.0 °F 78% 29.93 in 10.0 mi Calm Calm - N/A   Clear
11:15 AM 75.2 °F 68.0 °F 78% 29.93 in 10.0 mi Calm Calm - N/A   Clear
11:35 AM 75.2 °F 69.8 °F 83% 29.94 in 10.0 mi Calm Calm - N/A   Clear
11:55 AM 75.2 °F 69.8 °F 83% 29.94 in 10.0 mi Calm Calm - N/A   Partly Cloudy
12:15 PM 75.2 °F 69.8 °F 83% 29.93 in 10.0 mi SSE 4.6 mph - N/A   Unknown
12:35 PM 75.2 °F 69.8 °F 83% 29.93 in 9.0 mi South 4.6 mph - N/A   Clear
12:55 PM 77.0 °F 69.8 °F 78% 29.92 in 10.0 mi East 3.5 mph - N/A   Clear
1:15 PM 77.0 °F 68.0 °F 74% 29.91 in 10.0 mi SSE 5.8 mph - N/A   Clear
1:35 PM 77.0 °F 68.0 °F 74% 29.90 in 10.0 mi SSE 5.8 mph - N/A   Clear
1:55 PM 77.0 °F 68.0 °F 74% 29.90 in 10.0 mi South 3.5 mph - N/A   Partly Cloudy
2:15 PM 75.2 °F 68.0 °F 78% 29.89 in 9.0 mi SSE 4.6 mph - N/A   Clear
2:35 PM 75.2 °F 68.0 °F 78% 29.89 in 9.0 mi SSE 4.6 mph - N/A Rain Light Rain
2:55 PM 73.4 °F 69.8 °F 88% 29.89 in 9.0 mi Calm Calm - N/A   Scattered Clouds
3:15 PM 75.2 °F 69.8 °F 83% 29.88 in 9.0 mi South 4.6 mph - N/A   Scattered Clouds
3:35 PM 78.8 °F 68.0 °F 69% 29.87 in 10.0 mi SSE 5.8 mph - N/A   Clear
3:55 PM 78.8 °F 69.8 °F 74% 29.87 in 10.0 mi South 6.9 mph - N/A   Partly Cloudy
4:15 PM 77.0 °F 69.8 °F 78% 29.86 in 9.0 mi Variable 5.8 mph - N/A   Scattered Clouds
4:35 PM 77.0 °F 68.0 °F 74% 29.86 in 9.0 mi SSE 5.8 mph - N/A   Clear
4:55 PM 75.2 °F 69.8 °F 83% 29.86 in 10.0 mi SSE 5.8 mph - N/A   Scattered Clouds
5:15 PM 75.2 °F 69.8 °F 83% 29.87 in 10.0 mi South 5.8 mph - N/A   Scattered Clouds
5:35 PM 75.2 °F 69.8 °F 83% 29.87 in 9.0 mi Calm Calm - N/A   Partly Cloudy
5:55 PM 75.2 °F 69.8 °F 83% 29.87 in 10.0 mi South 4.6 mph - N/A   Clear
6:15 PM 75.2 °F 68.0 °F 78% 29.86 in 9.0 mi Calm Calm - N/A   Clear
6:35 PM 75.2 °F 68.0 °F 78% 29.85 in 9.0 mi SSW 3.5 mph - N/A   Clear
6:55 PM 75.2 °F 68.0 °F 78% 29.85 in 10.0 mi Calm Calm - N/A   Clear
7:15 PM 75.2 °F 69.8 °F 83% 29.85 in 10.0 mi Calm Calm - N/A   Clear
7:35 PM 73.4 °F 69.8 °F 88% 29.86 in 10.0 mi Calm Calm - N/A   Clear
7:55 PM 71.6 °F 69.8 °F 94% 29.86 in 9.0 mi Calm Calm - N/A   Clear
8:15 PM 71.6 °F 69.8 °F 94% 29.86 in 9.0 mi Calm Calm - N/A   Clear
8:35 PM 69.8 °F 69.8 °F 100% 29.87 in 10.0 mi Calm Calm - N/A   Clear
8:55 PM 69.8 °F 69.8 °F 100% 29.87 in 10.0 mi Calm Calm - N/A   Clear
9:15 PM 69.8 °F 69.8 °F 100% 29.87 in 9.0 mi Calm Calm - N/A   Clear
9:35 PM 69.8 °F 69.8 °F 100% 29.87 in 9.0 mi Calm Calm - N/A   Clear
9:55 PM 69.8 °F 69.8 °F 100% 29.87 in 9.0 mi Calm Calm - N/A   Clear
10:15 PM 68.0 °F 68.0 °F 100% 29.87 in 9.0 mi Calm Calm - N/A   Clear
10:35 PM 68.0 °F 68.0 °F 100% 29.87 in 8.0 mi Calm Calm - N/A   Clear
10:55 PM 68.0 °F 68.0 °F 100% 29.87 in 5.0 mi SSE 3.5 mph - N/A   Clear
11:15 PM 68.0 °F 68.0 °F 100% 29.88 in 3.0 mi Calm Calm - N/A   Mostly Cloudy
11:35 PM 68.0 °F 68.0 °F 100% 29.87 in 0.2 mi South 4.6 mph - N/A Fog Fog
11:55 PM 68.0 °F 68.0 °F 100% 29.87 in 0.2 mi Calm Calm - N/A Fog Fog